Simultaneous Nadir Overpasses (SNOs) Predictions

Prediction of SNOs between AQUA and GOES-15 Satellite Orbit:

Table of predicted SNOs for the next 14.0 days since TLE Epoch: 1/31/2020
Index Date Time (AQUA) AQUA Lat,Lon GOES-15 Lat,Lon Distance(km) Time Diff (sec)
1 01/31/2020 22:04:09 0.27,-127.18 0.04,-128.24 119.89 80
2 02/01/2020 10:25:24 0.84,-132.33 -0.04,-128.22 468.39 80
3 02/02/2020 21:51:58 0.89,-124.22 0.03,-128.18 450.70 80
4 02/03/2020 10:13:13 0.22,-129.38 -0.03,-128.16 137.74 80
5 02/05/2020 10:01:02 -0.41,-126.42 -0.03,-128.10 192.19 80
6 02/05/2020 22:22:26 -0.73,-131.60 0.03,-128.10 399.03 80
7 02/07/2020 22:10:14 -0.16,-128.63 -0.01,-128.03 69.26 80
8 02/09/2020 21:58:03 0.48,-125.68 -0.01,-127.95 259.03 80
9 02/10/2020 10:19:18 0.64,-130.83 0.01,-127.92 330.41 80
10 02/12/2020 10:07:07 0.01,-127.87 0.00,-127.85 2.44 80
11 02/14/2020 09:54:56 -0.63,-124.91 0.00,-127.77 325.32 80




NCC Satellite Simultaneous Nadir Overpasses (SNOs) Prediction Service
